Location: Bottenau
(48.5138°N, 8.0462°E)
Time: 05:33:29
(UTC+00:00)

ATLAS 5 CENTAUR R/B - Pass Details

Date: 18 April 2021
Orbit: 516 x 1141 km, 63.3° (Epoch: 02 May)

Event Time Altitude Azimuth Distance (km) Brightness Sun altitude
Rises 22:49:35 0° 315° (NW) 3,013 5.9 -29.7°
Reaches altitude 10° 22:52:22 10° 334° (NNW) 2,205 5.2 -29.8°
Maximum altitude 22:56:05 20° 21° (NNE) 1,763 4.4 -29.9°
Drops below altitude 10° 23:00:14 10° 67° (ENE) 2,512 4.8 -30.0°
Sets 23:03:40 0° 84° (E) 3,580 5.5 -30.1°
